Flag for China Weather past 2 weeks in Nanjing, Jiangsu, China

Now
75 °F

Fog.


Feels Like: 74 °F
Forecast: 69 / 85 °F
Wind: 3 mph from Northeast

Location: Nanjing

Current Time: Aug 29, 2015 at 11:31:24 PM

Latest Report: Aug 29, 2015 at 11:00 PM


Visibility: 2 mi

Pressure: 29.77 "Hg

Humidity: 94%

Dew point: 73 °F

Location of NanjingLocation

Historic Weather in Nanjing — Graph

°F

Nanjing temperature yesterday

Maximum temperature yesterday: 88 °F (at 1:00 PM)
Minimum temperature yesterday: 70 °F (at 3:00 AM)
Average temperature yesterday: 79 °F

Past Weeks' High & Low Weather Summary

 TemperatureHumidityPressure
High91 °F (Aug 27, 2:00 PM)100% (Aug 15, 5:00 AM)29.83 "Hg (Aug 15, 5:00 AM)
Low68 °F (Aug 23, 6:00 AM)38% (Aug 29, 1:00 PM)29.62 "Hg (Aug 15, 4:00 PM)
Average79 °F81%29.74 "Hg
* Reported Aug 14 10:00 PM — Aug 29 10:00 PM, Nanjing, Weather by CustomWeather, © 2015

Note: Actual official high and low records may vary slightly from our data, if they occured in-between our weather recording intervals... More about our weather records

Advertising

Nanjing weather history for previous 24 hours

 ConditionsComfort  
Time TempWeatherWind HumidityBarometerVisibility
10:00 PM
Sat, Aug 29
77 °FFog.3 mph89%29.77 "Hg2 mi
9:00 PM79 °FFog.3 mph74%29.77 "Hg2 mi
8:00 PM82 °FThunderstorms. Passing clouds.6 mph66%29.74 "Hg2 mi
7:00 PM81 °FHaze.6 mph70%29.71 "Hg2 mi
6:00 PM84 °FClear.3 mph58%29.71 "Hg4 mi
5:00 PM84 °FPassing clouds.3 mph58%29.71 "Hg4 mi
4:00 PM90 °FPassing clouds.3 mph43%29.71 "Hg5 mi
3:00 PM90 °FPartly sunny.6 mph46%29.71 "Hg4 mi
2:00 PM90 °FScattered clouds.6 mph46%29.74 "Hg4 mi
1:00 PM90 °FPartly sunny.3 mph38%29.74 "Hg4 mi
12:00 PM88 °FPartly sunny.3 mph46%29.77 "Hg4 mi
11:00 AM88 °FScattered clouds.6 mph52%29.77 "Hg2 mi
10:00 AM84 °FHaze.1 mph70%29.77 "Hg1 mi
9:00 AM82 °FFog.1 mph79%29.77 "Hg1 mi
8:00 AM77 °FFog.1 mph89%29.77 "Hg1 mi
7:00 AM75 °FFog.No wind94%29.77 "Hg1 mi
6:00 AM73 °FFog.1 mph94%29.77 "Hg1 mi
5:00 AM73 °FFog.1 mph94%29.74 "Hg1 mi
4:00 AM73 °FFog.3 mph94%29.74 "Hg1 mi
3:00 AM73 °FFog.1 mph94%29.74 "Hg1 mi
2:00 AM75 °FFog.1 mph89%29.74 "Hg1 mi
1:00 AM75 °FFog.3 mph89%29.74 "Hg2 mi
12:00 AM75 °FFog.1 mph89%29.77 "Hg2 mi
11:00 PM
Fri, Aug 28
77 °FFog.1 mph79%29.77 "Hg2 mi
Weather by CustomWeather, © 2015

See weather overviewHow to use our weather pages